Погода в Ветлянке

Россия / Астраханская область     47°38′12″N   46°37′42″E
темп.,
°C
ветер,
м/с
пор.,
м/с
влажн.,
%
обл.,
%
осадки,
мм/ч
давл.,
гПа
погр.,
м
8 марта, пн
пн801:00−1юз8155933 0.0 1019581
04:00−1юз8156126 0.0 1018677
07:00−1юз916650 0.0 1017601
10:00+1зюз1013560 0.0 1017963
13:00+4юз1012470 0.0 10161381
16:00+5зюз912462 0.0 10141483
19:00+2юз5126222 0.0 1014280
22:00+1юз6117038 0.0 1015279
9 марта, вт
вт901:000юз6117293 0.0 1014261
04:00−1юз5107896 0.0 1014235
07:00−1юз5108381 0.0 1013237
10:00+3юз7107089 0.0 1013731
13:00+3юз81183100 0.1 1011826
16:00+3з81189100 0.5 1011780
19:00+1зсз7136587 0.1 1012663
22:00−2сз488143 0.1 1015268
10 марта, ср
ср1001:00−2зюз35790 0.0 1016105
04:00−1зсз5107127 0.0 1016422
07:00−4ссз586989 0.0 1018661
10:00−3сз794959 0.0 10201069
13:00−2сз79410 0.0 10211394
16:00−2сз79390 0.0 10221559
19:00−5ссз58500 0.0 1022619
22:00−6ссз46520 0.0 1024870
11 марта, чт
чт1101:00−7с455324 0.0 1024803
04:00−9с564932 0.0 1025684
07:00−10с45590 0.0 1025597
10:00−9ссв55460 0.0 1027808
13:00−7ссв55340 0.0 10261172
16:00−6ссв66310 0.0 10261273
19:00−9ссв56360 0.0 10281032
22:00−10ссв56440 0.0 1030713
12 марта, пт
пт1201:00−12ссв56490 0.0 1031534
04:00−13ссв56510 0.0 1031448
07:00−14ссв35510 0.0 1032413
10:00−11св34360 0.0 1034595
13:00−8св23240 0.0 1033968
16:00−6св33200 0.0 10321151
19:00−7всв23260 0.0 1032148
22:00−8вюв34310 0.0 1033149